TimeEST,TemperatureF,Dew PointF,Humidity,Sea Level PressureIn,VisibilityMPH,Wind Direction,Wind SpeedMPH,Gust SpeedMPH,PrecipitationIn,Events,Conditions,WindDirDegrees,DateUTC
12:53 AM,33.1,25.0,72,30.14,10.0,West,3.5,-,N/A,,Overcast,260,2013-01-17 05:53:00
1:53 AM,32.0,24.1,73,30.15,10.0,Calm,Calm,-,N/A,,Mostly Cloudy,0,2013-01-17 06:53:00
2:53 AM,30.0,24.1,79,30.16,10.0,Calm,Calm,-,N/A,,Clear,0,2013-01-17 07:53:00
3:53 AM,28.9,25.0,85,30.16,9.0,Calm,Calm,-,N/A,,Clear,0,2013-01-17 08:53:00
4:53 AM,28.0,25.0,88,30.18,8.0,Calm,Calm,-,N/A,,Clear,0,2013-01-17 09:53:00
5:53 AM,28.9,25.0,85,30.17,9.0,WNW,4.6,-,N/A,,Clear,300,2013-01-17 10:53:00
6:53 AM,30.0,24.1,79,30.17,9.0,Calm,Calm,-,N/A,,Clear,0,2013-01-17 11:53:00
7:53 AM,28.0,24.1,85,30.21,9.0,Calm,Calm,-,N/A,,Clear,0,2013-01-17 12:53:00
8:53 AM,28.9,25.0,85,30.25,7.0,Calm,Calm,-,N/A,,Overcast,0,2013-01-17 13:53:00
9:53 AM,32.0,26.1,79,30.25,7.0,NNW,3.5,-,N/A,,Clear,340,2013-01-17 14:53:00
10:53 AM,34.0,26.1,73,30.25,8.0,Calm,Calm,-,N/A,,Partly Cloudy,0,2013-01-17 15:53:00
12:53 PM,41.0,28.9,62,30.19,10.0,North,8.1,-,N/A,,Clear,350,2013-01-17 17:53:00
1:53 PM,43.0,28.0,56,30.16,10.0,NNW,12.7,19.6,N/A,,Clear,340,2013-01-17 18:53:00
2:53 PM,43.0,27.0,53,30.17,10.0,North,11.5,-,N/A,,Partly Cloudy,350,2013-01-17 19:53:00
3:53 PM,43.0,26.1,51,30.17,10.0,North,12.7,-,N/A,,Clear,360,2013-01-17 20:53:00
4:53 PM,41.0,26.1,55,30.20,10.0,NNE,8.1,-,N/A,,Clear,20,2013-01-17 21:53:00
5:53 PM,37.0,25.0,62,30.27,10.0,North,3.5,-,N/A,,Clear,360,2013-01-17 22:53:00
6:53 PM,36.0,24.1,62,30.29,10.0,North,8.1,-,N/A,,Clear,350,2013-01-17 23:53:00
7:53 PM,34.0,21.9,61,30.32,10.0,North,4.6,-,N/A,,Clear,350,2013-01-18 00:53:00
8:53 PM,27.0,21.0,78,30.35,10.0,NW,5.8,-,N/A,,Clear,310,2013-01-18 01:53:00
9:53 PM,30.0,21.0,69,30.39,10.0,NNW,9.2,-,N/A,,Clear,330,2013-01-18 02:53:00
10:53 PM,28.9,17.1,61,30.41,10.0,NW,10.4,-,N/A,,Clear,320,2013-01-18 03:53:00
11:53 PM,27.0,17.1,66,30.43,10.0,NW,6.9,-,N/A,,Clear,320,2013-01-18 04:53:00